STARLINK-30235, 57294

Orbit data source: Space-Track

STARLINK-30235, 57294 is a payload satellite owned by SpaceX/Seattle (US) in LEO that was launched on Mon, 10 Jul 2023 UTC via an FALCON 9 launch vehicle from the Air Force Eastern Test Range (AFETR). Payload-class satellites include a variety of spacecraft equipped with specific instruments for various scientific and technological missions. These include communications satellites like Starlink; space stations such as the ISS; scientific satellites like the Hubble; Earth observation satellites from companies like Planet Labs, Umbra, and HawkEye 360; GPS; miniature CubeSats for education and research; and military/defense satellites.

Loading next visibility...
Identifier
57294, 2023-096E
Orbit
LEO
Country
Flag of USUS
Related business
Manufacturer
SpaceX/Seattle
Mission
Operational Commercial Communications
Bus & Motor
STARLINK V2M, Unknown motor
Mass
730 kg wet, ~700 kg dry
Launch date (UTC)
2023-07-10 (2 years ago)
Launch vehicle
FALCON 9
Launch site
Air Force Eastern Test Range (AFETR)
Object type
Payload
Rocket body
Debris
Shape & HBR
Box + 2 Pan, 14.5 m
Radar Cross Section
33.884 m², Large (>1 m²)

Expand to show TLE details & history
Last TLE update: 20 hours ago

TLE from 20 hours ago
0 STARLINK-30235
1 57294U 23096E   25241.22764761  .00000477  00000-0  50356-4 0  9997
2 57294  43.0005 189.1628 0001122 271.8881  88.1833 15.02534144118669
Epoch: 2025-08-29T05:27Z
TLE epoch observation values (Epoch: 2025-08-29T05:27:48.753Z)
Latitude
-0.00001°
Longitude
129.53034°
Altitude
558.839 km
Speed
7.584 km/s
True Right ascension
12h 36m 39s
True Declination
0° 00' 00"
Sunlit
Object was in daylight at epoch
Visualization orbit readout
Latitude
Unknown
Longitude
Unknown
Altitude
Unknown
Speed
Unknown
Apparent Right ascension
Unknown
Apparent Declination
Unknown
Sunlit
N/A
Visualization observer readout
Local Sidereal Time
17:10:41
Azimuth
Unknown
Elevation
Unknown
Doppler factor
Unknown
Orbital elements
Apogee altitude
561.788 km
Perigee altitude
560.231 km
Semi-major axis
6,939.146 km
Eccentricity
0.00011
Inclination
43.0005°
RAAN
189.1628°
Arg. of periapsis
271.8881°
True anomaly
88.19615°
Mean anomaly
88.1833°
Eccentric anomaly
88.18973°
Mean motion
3.75478 °/min
Orbital period
95.88 mins
BSTAR
0.000050356
Loading maneuver chart data...
Computing Atmospheric mass density...
Loading historical data...
Loading historical data...
Loading historical data...
Loading historical data...
Loading historical data...
Loading historical data...
Loading historical data...

Documentation

Showing up to 5 results
|